Regional Weather Roundup
Issued by NWS

Home | Current Version | Previous Version | Text Only | Print | Product List | Glossary On
Versions: 1 2 3 4 5 6 7 8 9 10 11 12 13 14 15 16 17 18 19 20 21 22 23 24 25 26 27 28 29 30 31 32 33 34 35 36 37 38 39 40 41 42 43 44 45 46 47 48 49 50
000
ASUS44 KLIX 242011
RWRLA
LOUISIANA WEATHER ROUNDUP
NATIONAL WEATHER SERVICE NEW ORLEANS LA
300 PM CDT SUN JUL 24 2016

NOTE: "FAIR" INDICATES FEW OR NO CLOUDS BELOW 12,000 FEET WITH NO
      SIGNIFICANT WEATHER AND/OR OBSTRUCTIONS TO VISIBILITY.
      SKY/WX - SKY CONDITION AND SIGNIFICANT WEATHER.
      TMP - AIR TEMPERATURE.    DP   - DEWPOINT TEMPERATURE.
      RH  - RELATIVE HUMIDITY.  PRES - PRESSURE.
      HX  - HEAT INDEX.         WCI  - WIND CHILL INDEX.

*  THESE STATIONS ARE NOT NWS OR FAA STATIONS AND ARE NOT UNDER
   NWS QUALITY CONTROL.

LAZ040-048-061>063-065-066-069-242100-
SOUTHEAST LOUISIANA

CITY           SKY/WX    TMP DP  RH WIND       PRES   REMARKS
N.O. AUDUBON   NOT AVBL
N.O. INTL ARPT CLOUDY    90  77  65 S10       29.94F HX 103
N.O. LAKEFRONT MOSUNNY   87  74  64 SW6       29.95F HX  95
N.O. DOWNTOWN* FAIR      87  75  67 CALM      29.94F HX  96
RESERVE*       MOCLDY    80  75  85 NW5       29.96F
SLIDELL        PTSUNNY   87  77  72 S7        29.94F HX  99
BATON ROUGE    CLOUDY    87  73  62 NW6       29.95F
BOOTHVILLE     CLOUDY    82  77  84 NW3       29.96F
BELLE CHASSE   PTSUNNY   84  76  76 CALM      29.94F
BOGALUSA*      FAIR      93  73  52 E6        29.95F HX 101
GALLIANO*      CLOUDY    78  74  88 SE3       29.97F
NEW ROADS*     FAIR      88  73  62 CALM      29.96F HX  96
GONZALES*      HVY RAIN  75  73  94 W7        29.96F
HAMMOND*       CLOUDY    82  73  74 N10       29.97R THUNDER HAZE
HOUMA*         SUNNY     81  77  89 CALM      29.96F
PORT FOURCHON* CLEAR     82  77  83 CALM      29.96F

$$

LAZ041-044-053-054-242100-
SOUTHWEST LOUISIANA

CITY           SKY/WX    TMP DP  RH WIND       PRES   REMARKS
LAKE CHARLES   CLOUDY    92  73  53 CALM      29.94F HX 100
LAFAYETTE      CLOUDY    81  75  82 NE9       29.98S
PATTERSON      CLOUDY    78  75  90 CALM      29.97F
SALT POINT       N/A     82  72  71 CALM      29.96F
NEW IBERIA     CLOUDY    83  74  74 N14       29.98R
CHENAULT AIRPK PTSUNNY   91  72  52 CALM      29.94F HX  98

$$

LAZ027-028-242100-
CENTRAL LOUISIANA

CITY           SKY/WX    TMP DP  RH WIND       PRES   REMARKS
FORT POLK      PTSUNNY   95  73  48 SE7       29.92F HX 103
ALEXANDRIA INT LGT RAIN  77  75  93 CALM      29.94F
ALEXANDRIA     CLOUDY    83  75  77 CALM      29.95F

$$

LAZ001-002-242100-
NORTHWEST LOUISIANA

CITY           SKY/WX    TMP DP  RH WIND       PRES   REMARKS
SHREVEPORT     MOSUNNY   96  77  54 W5        29.91F HX 111
BARKSDALE AFB  MOSUNNY   97  73  46 VRB6      29.91F HX 107
DTN SHREVEPORT MOSUNNY   97  76  50 VRB6      29.92F HX 110

$$

LAZ014-016-242100-
NORTHEAST LOUISIANA

CITY           SKY/WX    TMP DP  RH WIND       PRES   REMARKS
MONROE         CLOUDY    84  73  69 SW6       29.96R
TALLULAH       CLOUDY    85  77  77 CALM      29.95F HX  95

$$




USA.gov is the U.S. government's official web portal to all federal, state and local government web resources and services.